User: anonymous   Login
Location: ?????????
(38.5999°N, 22.7695°E)
Time: 13:32:17
(UTC+00:00)
Language:

Cosmos 2154 Rocket - Orbit

View from above orbital plane
View from above orbital plane
View from above satellite
View from above satellite

Ground track
Ground track

The orbit data is extracted from the following two-line orbital elements,

1 21667U 91059B   24195.90048711  .00000055  00000-0  41510-4 0  9992
2 21667  82.9043 244.9656 0019443 249.8697 290.7452 13.75192611650783
Epoch (UTC): 13 July 2024 21:36:42
Eccentricity: 0.0019443
inclination: 82.9043°
perigee height: 966 km
apogee height: 995 km
right ascension of ascending node: 244.9656°
argument of perigee: 249.8697°
revolutions per day: 13.75192611
mean anomaly at epoch: 290.7452°
orbit number at epoch: 65078

The dashed part of the orbit path shows where the satellite is in the earth's shadow,  

DLR